OBJECT C, 60205

Orbit data source: Space-Track

You're viewing an Uncataloged Satellite

Recently launched and/or uncataloged satellites may have evolving metadata. Metadata may include but not limited to: Owner, Maufacturer, Bus, Motor, and Mission.

OBJECT C, 60205 is a satellite owned by Teachers in Space (US) in SSO that was launched on Thu, 04 Jul 2024 UTC via an FIREFLY ALPHA launch vehicle from the Air Force Western Test Range (AFWTR). Unknown objects in Earth's orbit typically refer to objects detected orbiting the Earth but have not yet been identified or cataloged. These objects could be anything from previously untracked satellites, spent rocket stages, debris from satellite collisions, or even natural meteoroids temporarily captured by Earth's gravity.

Loading next visibility...
Identifier
60205, 2024-125C
Orbit
SSO
Last TLE update
17 hours ago
Origin
Flag of USTIS (US)
Manufacturer
Quub
Mission
Operational spacecraft
Bus & Motor
CUBESAT 3U, Unknown motor
Mass
3 kg wet, 3 kg dry
Launch date (UTC)
2024-07-04 (10 months ago)
Launch vehicle
FIREFLY ALPHA
Launch site
Air Force Western Test Range (AFWTR)
Object type
Unknown
Shape & HBR
Unknown
Radar Cross Section
Small (<0.1 m²)

Expand to show TLE details & history

TLE from 17 hours ago
0 OBJECT C
1 60205U 24125C   25128.54907917  .00028887  00000-0  70519-3 0  9995
2 60205  97.2815 341.9228 0013919 232.4954 127.5028 15.40714446 47134
Epoch: 2025-05-08T13:10Z
Definitive object data (Epoch: 2025-05-08T13:10:40.44Z)
Latitude
-0.00002°
Longitude
-82.36368°
Altitude
452.912 km
Speed
7.637 km/s
True Right ascension
22h 47m 41s
True Declination
0° 00' 00"
Sunlit
Object was in daylight at TLE epoch
Visualization TLE readout
Latitude
65.88083°
Longitude
-98.1276°
Altitude
464.372 km
Speed
7.635 km/s
Apparent Right ascension
01h 02m 31s
Apparent Declination
19° 02' 42"
Sunlit
Object is in daylight
Visualization observer readout
Local Sidereal Time
14:45:40
Azimuth
27.306° NE
Elevation
-26.323°
Doppler factor
1
Orbital elements
Apogee altitude
450.424 km
Perigee altitude
431.441 km
Semi-major axis
6,819.069 km
Eccentricity
0.0013919
Inclination
97.2815°
RAAN
341.9228°
Arg. of periapsis
232.4954°
True anomaly
127.6292°
Mean anomaly
127.5028°
Eccentric anomaly
127.56601°
Mean motion
3.85439 °/min
BSTAR
0.00070519
Orbital period
93.4 mins
Loading maneuver chart data...
Loading SW <> Apogee altitude chart data...
Loading historical data...
Loading historical data...
Loading historical data...
Loading historical data...
Loading historical data...
Loading historical data...
Loading historical data...

OBJECT C Visibility forecast

Observer location: undefined°, undefined°

Span
Click to sort rows by Start time (UTC) header in descending order
Start Az.
Max El. time (UTC)
Max El. Az.
Max El.
End time (UTC)
End Az.
6 mins2025-05-09 14:14:48.268Z167.588° S2025-05-09 14:17:48.268Z345.586° N43.628°2025-05-09 14:20:48.268Z348.109° N
4 mins2025-05-10 03:09:48.268Z4.18° NNE2025-05-10 03:11:48.268Z229.66° WSW42.388°2025-05-10 03:13:48.268Z199.601° SSW
|